contact:dominique.lefevre@mio.osupytheas.fr, maurice.libes@osupytheas.fr, didier.mallarino@osupytheas.fr
Project:EMSO http://www.emso-fr.org/EMSO-France
Depth: 2436.0 m
Title:EMSO Ligure Ouest : Data MII capteur MICROCAT
DateTime_Computer,Latitude,Longitude,Temperature,Conductivity,Pressure,DateTime_Instrument
DateTime_Computer,Latitude,Longitude,degC,S m-1,dbar,DateTime_Instrument
2022-07-19T00:00:14Z,42.805,6.029,13.3007,4.60041,2470.717,2022-7-19T02:02:01Z
2022-07-19T00:03:18Z,42.805,6.029,13.3007,4.60042,2470.707,2022-7-19T02:05:04Z
2022-07-19T00:06:21Z,42.805,6.029,13.3005,4.60043,2470.693,2022-7-19T02:08:07Z
2022-07-19T00:09:24Z,42.805,6.029,13.3006,4.60044,2470.693,2022-7-19T02:11:10Z
2022-07-19T00:12:27Z,42.805,6.029,13.3009,4.60041,2470.717,2022-7-19T02:14:14Z
2022-07-19T00:15:30Z,42.805,6.029,13.3006,4.60043,2470.754,2022-7-19T02:17:17Z
2022-07-19T00:18:33Z,42.805,6.029,13.3006,4.60045,2470.73,2022-7-19T02:20:20Z
2022-07-19T00:21:36Z,42.805,6.029,13.3006,4.60045,2470.717,2022-7-19T02:23:23Z
2022-07-19T00:24:39Z,42.805,6.029,13.3009,4.60044,2470.693,2022-7-19T02:26:26Z
2022-07-19T00:27:42Z,42.805,6.029,13.3009,4.60042,2470.717,2022-7-19T02:29:29Z
2022-07-19T00:30:46Z,42.805,6.029,13.3009,4.60047,2470.73,2022-7-19T02:32:32Z
2022-07-19T00:33:49Z,42.805,6.029,13.3008,4.60044,2470.717,2022-7-19T02:35:35Z
2022-07-19T00:36:52Z,42.805,6.029,13.3006,4.60046,2470.717,2022-7-19T02:38:39Z
2022-07-19T00:39:55Z,42.805,6.029,13.3008,4.60045,2470.707,2022-7-19T02:41:42Z
2022-07-19T00:42:58Z,42.805,6.029,13.3007,4.60045,2470.693,2022-7-19T02:44:45Z
2022-07-19T00:46:01Z,42.805,6.029,13.3007,4.60044,2470.717,2022-7-19T02:47:48Z
2022-07-19T00:49:04Z,42.805,6.029,13.3009,4.60044,2470.717,2022-7-19T02:50:51Z
2022-07-19T00:52:07Z,42.805,6.029,13.3008,4.60042,2470.717,2022-7-19T02:53:54Z
2022-07-19T00:55:11Z,42.805,6.029,13.3004,4.60042,2470.717,2022-7-19T02:56:57Z
2022-07-19T00:58:14Z,42.805,6.029,13.3009,4.60044,2470.73,2022-7-19T03:00:00Z
2022-07-19T01:01:17Z,42.805,6.029,13.3007,4.60042,2470.707,2022-7-19T03:03:04Z
2022-07-19T01:04:20Z,42.805,6.029,13.3006,4.60044,2470.717,2022-7-19T03:06:07Z
2022-07-19T01:07:23Z,42.805,6.029,13.3006,4.60042,2470.73,2022-7-19T03:09:10Z
2022-07-19T01:10:26Z,42.805,6.029,13.3006,4.60042,2470.693,2022-7-19T03:12:13Z
2022-07-19T01:13:29Z,42.805,6.029,13.3010,4.60043,2470.656,2022-7-19T03:15:16Z
2022-07-19T01:16:32Z,42.805,6.029,13.3004,4.60046,2470.73,2022-7-19T03:18:19Z
2022-07-19T01:19:36Z,42.805,6.029,13.3005,4.60044,2470.693,2022-7-19T03:21:22Z
2022-07-19T01:22:39Z,42.805,6.029,13.3009,4.60051,2470.703,2022-7-19T03:24:25Z
2022-07-19T01:25:42Z,42.805,6.029,13.3010,4.60045,2470.707,2022-7-19T03:27:28Z
2022-07-19T01:28:45Z,42.805,6.029,13.3007,4.60042,2470.679,2022-7-19T03:30:32Z
2022-07-19T01:31:48Z,42.805,6.029,13.3008,4.60045,2470.67,2022-7-19T03:33:35Z
2022-07-19T01:34:51Z,42.805,6.029,13.3008,4.60049,2470.67,2022-7-19T03:36:38Z
2022-07-19T01:37:54Z,42.805,6.029,13.3011,4.60049,2470.717,2022-7-19T03:39:41Z
2022-07-19T01:40:57Z,42.805,6.029,13.3009,4.60045,2470.67,2022-7-19T03:42:44Z
2022-07-19T01:44:01Z,42.805,6.029,13.3009,4.60044,2470.693,2022-7-19T03:45:47Z
2022-07-19T01:47:04Z,42.805,6.029,13.3004,4.60042,2470.67,2022-7-19T03:48:50Z
2022-07-19T01:50:07Z,42.805,6.029,13.3011,4.60044,2470.684,2022-7-19T03:51:53Z
2022-07-19T01:53:10Z,42.805,6.029,13.3006,4.60044,2470.646,2022-7-19T03:54:57Z
2022-07-19T01:56:13Z,42.805,6.029,13.3005,4.60046,2470.661,2022-7-19T03:58:00Z
2022-07-19T01:59:16Z,42.805,6.029,13.3006,4.60042,2470.67,2022-7-19T04:01:03Z
2022-07-19T02:02:19Z,42.805,6.029,13.3007,4.60044,2470.693,2022-7-19T04:04:06Z
2022-07-19T02:05:22Z,42.805,6.029,13.3008,4.60043,2470.684,2022-7-19T04:07:09Z
2022-07-19T02:08:25Z,42.805,6.029,13.3006,4.60047,2470.67,2022-7-19T04:10:12Z
2022-07-19T02:11:29Z,42.805,6.029,13.3009,4.60047,2470.67,2022-7-19T04:13:15Z
2022-07-19T02:14:32Z,42.805,6.029,13.3007,4.60044,2470.67,2022-7-19T04:16:18Z
2022-07-19T02:17:35Z,42.805,6.029,13.3004,4.60046,2470.646,2022-7-19T04:19:22Z
2022-07-19T02:20:38Z,42.805,6.029,13.3008,4.60044,2470.684,2022-7-19T04:22:25Z
2022-07-19T02:23:41Z,42.805,6.029,13.3011,4.60046,2470.646,2022-7-19T04:25:28Z
2022-07-19T02:26:44Z,42.805,6.029,13.3007,4.60046,2470.707,2022-7-19T04:28:31Z
2022-07-19T02:29:47Z,42.805,6.029,13.3010,4.60046,2470.633,2022-7-19T04:31:34Z
2022-07-19T02:32:50Z,42.805,6.029,13.3006,4.60049,2470.684,2022-7-19T04:34:37Z
2022-07-19T02:35:54Z,42.805,6.029,13.3009,4.60054,2470.646,2022-7-19T04:37:40Z
2022-07-19T02:38:57Z,42.805,6.029,13.3008,4.60049,2470.661,2022-7-19T04:40:43Z
2022-07-19T02:42:00Z,42.805,6.029,13.3014,4.60046,2470.624,2022-7-19T04:43:47Z
2022-07-19T02:45:03Z,42.805,6.029,13.3007,4.60046,2470.624,2022-7-19T04:46:50Z
2022-07-19T02:48:06Z,42.805,6.029,13.3009,4.60044,2470.6,2022-7-19T04:49:53Z
2022-07-19T02:51:09Z,42.805,6.029,13.3011,4.60049,2470.6,2022-7-19T04:52:56Z
2022-07-19T02:54:12Z,42.805,6.029,13.3004,4.60051,2470.661,2022-7-19T04:55:59Z
2022-07-19T02:57:15Z,42.805,6.029,13.3008,4.60046,2470.591,2022-7-19T04:59:02Z
2022-07-19T03:00:19Z,42.805,6.029,13.3015,4.60049,2470.624,2022-7-19T05:02:05Z
2022-07-19T03:03:22Z,42.805,6.029,13.3007,4.60047,2470.661,2022-7-19T05:05:08Z
2022-07-19T03:06:25Z,42.805,6.029,13.3007,4.60046,2470.637,2022-7-19T05:08:11Z
2022-07-19T03:09:28Z,42.805,6.029,13.3006,4.60047,2470.637,2022-7-19T05:11:15Z
2022-07-19T03:12:31Z,42.805,6.029,13.3011,4.60049,2470.624,2022-7-19T05:14:18Z
2022-07-19T03:15:34Z,42.805,6.029,13.3009,4.60044,2470.614,2022-7-19T05:17:21Z
2022-07-19T03:18:37Z,42.805,6.029,13.3009,4.60049,2470.624,2022-7-19T05:20:24Z
2022-07-19T03:21:40Z,42.805,6.029,13.3007,4.60046,2470.624,2022-7-19T05:23:27Z
2022-07-19T03:24:44Z,42.805,6.029,13.3009,4.60046,2470.637,2022-7-19T05:26:30Z
2022-07-19T03:27:47Z,42.805,6.029,13.3009,4.60047,2470.577,2022-7-19T05:29:33Z
2022-07-19T03:30:50Z,42.805,6.029,13.3011,4.60046,2470.6,2022-7-19T05:32:36Z
2022-07-19T03:33:53Z,42.805,6.029,13.3009,4.60049,2470.624,2022-7-19T05:35:40Z
2022-07-19T03:36:56Z,42.805,6.029,13.3006,4.60049,2470.614,2022-7-19T05:38:43Z
2022-07-19T03:39:59Z,42.805,6.029,13.3009,4.60046,2470.637,2022-7-19T05:41:46Z
2022-07-19T03:43:02Z,42.805,6.029,13.3011,4.60045,2470.591,2022-7-19T05:44:49Z
2022-07-19T03:46:05Z,42.805,6.029,13.3014,4.60046,2470.624,2022-7-19T05:47:52Z
2022-07-19T03:49:09Z,42.805,6.029,13.3006,4.60045,2470.6,2022-7-19T05:50:55Z
2022-07-19T03:52:12Z,42.805,6.029,13.3011,4.60045,2470.6,2022-7-19T05:53:58Z
2022-07-19T03:55:15Z,42.805,6.029,13.3008,4.60045,2470.614,2022-7-19T05:57:01Z
2022-07-19T03:58:18Z,42.805,6.029,13.3011,4.60044,2470.614,2022-7-19T06:00:05Z
2022-07-19T04:01:21Z,42.805,6.029,13.3009,4.60046,2470.6,2022-7-19T06:03:08Z
2022-07-19T04:04:24Z,42.805,6.029,13.3011,4.60046,2470.577,2022-7-19T06:06:11Z
2022-07-19T04:07:27Z,42.805,6.029,13.3010,4.60046,2470.624,2022-7-19T06:09:14Z
2022-07-19T04:10:30Z,42.805,6.029,13.3009,4.60047,2470.614,2022-7-19T06:12:17Z
2022-07-19T04:13:33Z,42.805,6.029,13.3009,4.60044,2470.591,2022-7-19T06:15:20Z
2022-07-19T04:16:37Z,42.805,6.029,13.3009,4.60047,2470.591,2022-7-19T06:18:23Z
2022-07-19T04:19:40Z,42.805,6.029,13.3006,4.60045,2470.6,2022-7-19T06:21:26Z
2022-07-19T04:22:43Z,42.805,6.029,13.3009,4.60045,2470.6,2022-7-19T06:24:30Z
2022-07-19T04:25:46Z,42.805,6.029,13.3006,4.60045,2470.6,2022-7-19T06:27:33Z
2022-07-19T04:28:49Z,42.805,6.029,13.3008,4.60046,2470.577,2022-7-19T06:30:36Z
2022-07-19T04:31:52Z,42.805,6.029,13.3009,4.60046,2470.6,2022-7-19T06:33:39Z
2022-07-19T04:34:55Z,42.805,6.029,13.3013,4.60046,2470.577,2022-7-19T06:36:42Z
2022-07-19T04:37:58Z,42.805,6.029,13.3011,4.60045,2470.577,2022-7-19T06:39:45Z
2022-07-19T04:41:02Z,42.805,6.029,13.3010,4.60046,2470.577,2022-7-19T06:42:48Z
2022-07-19T04:44:05Z,42.805,6.029,13.3008,4.60045,2470.563,2022-7-19T06:45:51Z
2022-07-19T04:47:08Z,42.805,6.029,13.3006,4.60046,2470.6,2022-7-19T06:48:55Z
2022-07-19T04:50:11Z,42.805,6.029,13.3011,4.60046,2470.6,2022-7-19T06:51:58Z
2022-07-19T04:53:14Z,42.805,6.029,13.3012,4.60046,2470.614,2022-7-19T06:55:01Z
2022-07-19T04:56:17Z,42.805,6.029,13.3011,4.60046,2470.577,2022-7-19T06:58:04Z
2022-07-19T04:59:20Z,42.805,6.029,13.3011,4.60046,2470.53,2022-7-19T07:01:07Z
2022-07-19T05:02:23Z,42.805,6.029,13.3009,4.60048,2470.591,2022-7-19T07:04:10Z
2022-07-19T05:05:27Z,42.805,6.029,13.3009,4.60046,2470.567,2022-7-19T07:07:13Z
2022-07-19T05:08:30Z,42.805,6.029,13.3006,4.60046,2470.553,2022-7-19T07:10:16Z
2022-07-19T05:11:33Z,42.805,6.029,13.3012,4.60046,2470.567,2022-7-19T07:13:20Z
2022-07-19T05:14:36Z,42.805,6.029,13.3012,4.60046,2470.567,2022-7-19T07:16:23Z
2022-07-19T05:17:39Z,42.805,6.029,13.3009,4.60045,2470.567,2022-7-19T07:19:26Z
2022-07-19T05:20:42Z,42.805,6.029,13.3010,4.60045,2470.577,2022-7-19T07:22:29Z
2022-07-19T05:23:45Z,42.805,6.029,13.3011,4.60049,2470.577,2022-7-19T07:25:32Z
2022-07-19T05:26:48Z,42.805,6.029,13.3010,4.60046,2470.567,2022-7-19T07:28:35Z
2022-07-19T05:29:52Z,42.805,6.029,13.3009,4.60046,2470.591,2022-7-19T07:31:38Z
2022-07-19T05:32:55Z,42.805,6.029,13.3011,4.60046,2470.567,2022-7-19T07:34:41Z
2022-07-19T05:35:58Z,42.805,6.029,13.3009,4.60045,2470.553,2022-7-19T07:37:44Z
2022-07-19T05:39:01Z,42.805,6.029,13.3008,4.60045,2470.567,2022-7-19T07:40:48Z
2022-07-19T05:42:04Z,42.805,6.029,13.3009,4.60046,2470.567,2022-7-19T07:43:51Z
2022-07-19T05:45:07Z,42.805,6.029,13.3008,4.60046,2470.507,2022-7-19T07:46:54Z
2022-07-19T05:48:10Z,42.805,6.029,13.3011,4.60046,2470.53,2022-7-19T07:49:57Z
2022-07-19T05:51:13Z,42.805,6.029,13.3013,4.60044,2470.53,2022-7-19T07:53:00Z
2022-07-19T05:54:17Z,42.805,6.029,13.3011,4.60044,2470.53,2022-7-19T07:56:03Z
2022-07-19T05:57:20Z,42.805,6.029,13.3012,4.60046,2470.553,2022-7-19T07:59:06Z
2022-07-19T06:00:23Z,42.805,6.029,13.3011,4.60046,2470.507,2022-7-19T08:02:09Z
2022-07-19T06:03:26Z,42.805,6.029,13.3015,4.60045,2470.553,2022-7-19T08:05:13Z
2022-07-19T06:06:29Z,42.805,6.029,13.3006,4.60044,2470.53,2022-7-19T08:08:16Z
2022-07-19T06:09:32Z,42.805,6.029,13.3011,4.60045,2470.553,2022-7-19T08:11:19Z
2022-07-19T06:12:35Z,42.805,6.029,13.3012,4.60045,2470.577,2022-7-19T08:14:22Z
2022-07-19T06:15:38Z,42.805,6.029,13.3013,4.60045,2470.567,2022-7-19T08:17:25Z
2022-07-19T06:18:41Z,42.805,6.029,13.3008,4.60044,2470.567,2022-7-19T08:20:28Z
2022-07-19T06:21:45Z,42.805,6.029,13.3011,4.60046,2470.53,2022-7-19T08:23:31Z
2022-07-19T06:24:48Z,42.805,6.029,13.3010,4.60045,2470.53,2022-7-19T08:26:34Z
2022-07-19T06:27:51Z,42.805,6.029,13.3010,4.60044,2470.53,2022-7-19T08:29:38Z
2022-07-19T06:30:54Z,42.805,6.029,13.3010,4.60046,2470.544,2022-7-19T08:32:41Z
2022-07-19T06:33:57Z,42.805,6.029,13.3008,4.60046,2470.53,2022-7-19T08:35:44Z
2022-07-19T06:37:00Z,42.805,6.029,13.3010,4.60045,2470.53,2022-7-19T08:38:47Z
2022-07-19T06:40:03Z,42.805,6.029,13.3014,4.60046,2470.567,2022-7-19T08:41:50Z
2022-07-19T06:43:06Z,42.805,6.029,13.3009,4.60045,2470.567,2022-7-19T08:44:53Z
2022-07-19T06:46:10Z,42.805,6.029,13.3011,4.60044,2470.553,2022-7-19T08:47:56Z
2022-07-19T06:49:13Z,42.805,6.029,13.3008,4.60046,2470.53,2022-7-19T08:50:59Z
2022-07-19T06:52:16Z,42.805,6.029,13.3012,4.60044,2470.507,2022-7-19T08:54:03Z
2022-07-19T06:55:19Z,42.805,6.029,13.3014,4.60046,2470.544,2022-7-19T08:57:06Z
2022-07-19T06:58:22Z,42.805,6.029,13.3009,4.60043,2470.553,2022-7-19T09:00:09Z
2022-07-19T07:01:25Z,42.805,6.029,13.3011,4.60042,2470.544,2022-7-19T09:03:12Z
2022-07-19T07:04:28Z,42.805,6.029,13.3009,4.60044,2470.53,2022-7-19T09:06:15Z
2022-07-19T07:07:31Z,42.805,6.029,13.3012,4.60044,2470.53,2022-7-19T09:09:18Z
2022-07-19T07:10:35Z,42.805,6.029,13.3008,4.60043,2470.544,2022-7-19T09:12:21Z
2022-07-19T07:13:38Z,42.805,6.029,13.3011,4.60046,2470.553,2022-7-19T09:15:24Z
2022-07-19T07:16:41Z,42.805,6.029,13.3011,4.60044,2470.53,2022-7-19T09:18:27Z
2022-07-19T07:19:44Z,42.805,6.029,13.3009,4.60045,2470.53,2022-7-19T09:21:31Z
2022-07-19T07:22:47Z,42.805,6.029,13.3015,4.60045,2470.553,2022-7-19T09:24:34Z
2022-07-19T07:25:50Z,42.805,6.029,13.3006,4.60043,2470.553,2022-7-19T09:27:37Z
2022-07-19T07:28:53Z,42.805,6.029,13.3012,4.60043,2470.577,2022-7-19T09:30:40Z
2022-07-19T07:31:56Z,42.805,6.029,13.3012,4.60044,2470.553,2022-7-19T09:33:43Z
2022-07-19T07:35:00Z,42.805,6.029,13.3009,4.60044,2470.553,2022-7-19T09:36:46Z
2022-07-19T07:38:03Z,42.805,6.029,13.3009,4.60044,2470.591,2022-7-19T09:39:49Z
2022-07-19T07:41:06Z,42.805,6.029,13.3009,4.60044,2470.553,2022-7-19T09:42:52Z
2022-07-19T07:44:09Z,42.805,6.029,13.3006,4.60044,2470.553,2022-7-19T09:45:56Z
2022-07-19T07:47:12Z,42.805,6.029,13.3008,4.60044,2470.577,2022-7-19T09:48:59Z
2022-07-19T07:50:15Z,42.805,6.029,13.3009,4.60045,2470.553,2022-7-19T09:52:02Z
2022-07-19T07:53:18Z,42.805,6.029,13.3006,4.60043,2470.553,2022-7-19T09:55:05Z
2022-07-19T07:56:21Z,42.805,6.029,13.3009,4.60044,2470.591,2022-7-19T09:58:08Z
2022-07-19T07:59:25Z,42.805,6.029,13.3005,4.60043,2470.614,2022-7-19T10:01:11Z
2022-07-19T08:02:28Z,42.805,6.029,13.3007,4.60042,2470.577,2022-7-19T10:04:14Z
2022-07-19T08:05:31Z,42.805,6.029,13.3009,4.60043,2470.567,2022-7-19T10:07:17Z
2022-07-19T08:08:34Z,42.805,6.029,13.3005,4.60042,2470.567,2022-7-19T10:10:21Z
2022-07-19T08:11:37Z,42.805,6.029,13.3011,4.60043,2470.577,2022-7-19T10:13:24Z
2022-07-19T08:14:40Z,42.805,6.029,13.3011,4.60042,2470.567,2022-7-19T10:16:27Z
2022-07-19T08:17:43Z,42.805,6.029,13.3006,4.60043,2470.577,2022-7-19T10:19:30Z
2022-07-19T08:20:46Z,42.805,6.029,13.3009,4.60044,2470.577,2022-7-19T10:22:33Z
2022-07-19T08:23:50Z,42.805,6.029,13.3010,4.60042,2470.577,2022-7-19T10:25:36Z
2022-07-19T08:26:53Z,42.805,6.029,13.3009,4.60042,2470.591,2022-7-19T10:28:39Z
2022-07-19T08:29:56Z,42.805,6.029,13.3006,4.60041,2470.577,2022-7-19T10:31:42Z
2022-07-19T08:32:59Z,42.805,6.029,13.3011,4.60040,2470.6,2022-7-19T10:34:46Z
2022-07-19T08:36:02Z,42.805,6.029,13.3009,4.60039,2470.591,2022-7-19T10:37:49Z
2022-07-19T08:39:05Z,42.805,6.029,13.3004,4.60040,2470.624,2022-7-19T10:40:52Z
2022-07-19T08:42:08Z,42.805,6.029,13.3001,4.60038,2470.624,2022-7-19T10:43:55Z
2022-07-19T08:45:11Z,42.805,6.029,13.3007,4.60039,2470.577,2022-7-19T10:46:58Z
2022-07-19T08:48:15Z,42.805,6.029,13.3009,4.60039,2470.591,2022-7-19T10:50:01Z
2022-07-19T08:51:18Z,42.805,6.029,13.3008,4.60039,2470.591,2022-7-19T10:53:04Z
2022-07-19T08:54:21Z,42.805,6.029,13.3003,4.60038,2470.614,2022-7-19T10:56:08Z
2022-07-19T08:57:24Z,42.805,6.029,13.3004,4.60038,2470.591,2022-7-19T10:59:11Z
2022-07-19T09:00:27Z,42.805,6.029,13.3007,4.60039,2470.637,2022-7-19T11:02:14Z
2022-07-19T09:03:30Z,42.805,6.029,13.3008,4.60039,2470.577,2022-7-19T11:05:17Z
2022-07-19T09:06:33Z,42.805,6.029,13.3006,4.60038,2470.6,2022-7-19T11:08:20Z
2022-07-19T09:09:36Z,42.805,6.029,13.3006,4.60038,2470.591,2022-7-19T11:11:23Z
2022-07-19T09:12:40Z,42.805,6.029,13.3005,4.60037,2470.614,2022-7-19T11:14:26Z
2022-07-19T09:15:43Z,42.805,6.029,13.3004,4.60038,2470.6,2022-7-19T11:17:29Z
2022-07-19T09:18:46Z,42.805,6.029,13.3009,4.60038,2470.6,2022-7-19T11:20:33Z
2022-07-19T09:21:49Z,42.805,6.029,13.3006,4.60038,2470.6,2022-7-19T11:23:36Z
2022-07-19T09:24:52Z,42.805,6.029,13.3009,4.60039,2470.624,2022-7-19T11:26:39Z
2022-07-19T09:27:55Z,42.805,6.029,13.3004,4.60038,2470.637,2022-7-19T11:29:42Z
2022-07-19T09:30:58Z,42.805,6.029,13.3005,4.60039,2470.6,2022-7-19T11:32:45Z
2022-07-19T09:34:01Z,42.805,6.029,13.3004,4.60040,2470.637,2022-7-19T11:35:48Z
2022-07-19T09:37:05Z,42.805,6.029,13.3006,4.60038,2470.614,2022-7-19T11:38:51Z
2022-07-19T09:40:08Z,42.805,6.029,13.3006,4.60039,2470.646,2022-7-19T11:41:54Z
2022-07-19T09:43:11Z,42.805,6.029,13.3004,4.60039,2470.6,2022-7-19T11:44:58Z
2022-07-19T09:46:14Z,42.805,6.029,13.3004,4.60039,2470.6,2022-7-19T11:48:01Z
2022-07-19T09:49:17Z,42.805,6.029,13.3004,4.60036,2470.614,2022-7-19T11:51:04Z
2022-07-19T09:52:20Z,42.805,6.029,13.3004,4.60039,2470.624,2022-7-19T11:54:07Z
2022-07-19T09:55:23Z,42.805,6.029,13.3002,4.60038,2470.637,2022-7-19T11:57:10Z
2022-07-19T09:58:26Z,42.805,6.029,13.3004,4.60040,2470.624,2022-7-19T12:00:13Z
2022-07-19T10:01:30Z,42.805,6.029,13.3004,4.60037,2470.624,2022-7-19T12:03:16Z
2022-07-19T10:04:33Z,42.805,6.029,13.3004,4.60039,2470.6,2022-7-19T12:06:19Z
2022-07-19T10:07:36Z,42.805,6.029,13.3001,4.60038,2470.614,2022-7-19T12:09:23Z
2022-07-19T10:10:39Z,42.805,6.029,13.3004,4.60037,2470.661,2022-7-19T12:12:26Z
2022-07-19T10:13:42Z,42.805,6.029,13.3007,4.60037,2470.624,2022-7-19T12:15:29Z
2022-07-19T10:16:45Z,42.805,6.029,13.3005,4.60036,2470.624,2022-7-19T12:18:32Z
2022-07-19T10:19:48Z,42.805,6.029,13.3004,4.60037,2470.624,2022-7-19T12:21:35Z
2022-07-19T10:22:51Z,42.805,6.029,13.3002,4.60037,2470.661,2022-7-19T12:24:38Z
2022-07-19T10:25:55Z,42.805,6.029,13.3002,4.60039,2470.624,2022-7-19T12:27:41Z
2022-07-19T10:28:58Z,42.805,6.029,13.3005,4.60037,2470.646,2022-7-19T12:30:44Z
2022-07-19T10:32:01Z,42.805,6.029,13.3004,4.60038,2470.646,2022-7-19T12:33:48Z
2022-07-19T10:35:04Z,42.805,6.029,13.3006,4.60036,2470.661,2022-7-19T12:36:51Z
2022-07-19T10:38:07Z,42.805,6.029,13.3002,4.60039,2470.661,2022-7-19T12:39:54Z
2022-07-19T10:41:10Z,42.805,6.029,13.3004,4.60038,2470.624,2022-7-19T12:42:57Z
2022-07-19T10:44:13Z,42.805,6.029,13.3008,4.60040,2470.624,2022-7-19T12:46:00Z
2022-07-19T10:47:16Z,42.805,6.029,13.3004,4.60038,2470.6,2022-7-19T12:49:03Z
2022-07-19T10:50:20Z,42.805,6.029,13.3007,4.60037,2470.661,2022-7-19T12:52:06Z
2022-07-19T10:53:23Z,42.805,6.029,13.3007,4.60037,2470.661,2022-7-19T12:55:09Z
2022-07-19T10:56:26Z,42.805,6.029,13.3004,4.60039,2470.637,2022-7-19T12:58:13Z
2022-07-19T10:59:29Z,42.805,6.029,13.3004,4.60040,2470.637,2022-7-19T13:01:16Z
2022-07-19T11:02:32Z,42.805,6.029,13.3006,4.60040,2470.646,2022-7-19T13:04:19Z
2022-07-19T11:05:35Z,42.805,6.029,13.3005,4.60039,2470.624,2022-7-19T13:07:22Z
2022-07-19T11:08:38Z,42.805,6.029,13.3005,4.60041,2470.624,2022-7-19T13:10:25Z
2022-07-19T11:11:41Z,42.805,6.029,13.3005,4.60037,2470.661,2022-7-19T13:13:28Z
2022-07-19T11:14:45Z,42.805,6.029,13.3003,4.60038,2470.624,2022-7-19T13:16:31Z
2022-07-19T11:17:48Z,42.805,6.029,13.3005,4.60038,2470.614,2022-7-19T13:19:34Z
2022-07-19T11:20:51Z,42.805,6.029,13.3006,4.60040,2470.661,2022-7-19T13:22:38Z
2022-07-19T11:23:54Z,42.805,6.029,13.3006,4.60043,2470.637,2022-7-19T13:25:41Z
2022-07-19T11:26:57Z,42.805,6.029,13.3004,4.60038,2470.684,2022-7-19T13:28:44Z
2022-07-19T11:30:00Z,42.805,6.029,13.3003,4.60039,2470.624,2022-7-19T13:31:47Z
2022-07-19T11:33:03Z,42.805,6.029,13.3006,4.60039,2470.637,2022-7-19T13:34:50Z
2022-07-19T11:36:07Z,42.805,6.029,13.3006,4.60039,2470.646,2022-7-19T13:37:53Z
2022-07-19T11:39:10Z,42.805,6.029,13.3003,4.60038,2470.624,2022-7-19T13:40:56Z
2022-07-19T11:42:13Z,42.805,6.029,13.3004,4.60041,2470.624,2022-7-19T13:43:59Z
2022-07-19T11:45:16Z,42.805,6.029,13.3003,4.60039,2470.684,2022-7-19T13:47:03Z
2022-07-19T11:48:19Z,42.805,6.029,13.3003,4.60039,2470.646,2022-7-19T13:50:06Z
2022-07-19T11:51:22Z,42.805,6.029,13.3004,4.60037,2470.624,2022-7-19T13:53:09Z
2022-07-19T11:54:25Z,42.805,6.029,13.3004,4.60039,2470.624,2022-7-19T13:56:12Z
2022-07-19T11:57:28Z,42.805,6.029,13.3006,4.60040,2470.624,2022-7-19T13:59:15Z
2022-07-19T12:00:32Z,42.805,6.029,13.3006,4.60040,2470.661,2022-7-19T14:02:18Z
2022-07-19T12:03:35Z,42.805,6.029,13.3004,4.60039,2470.646,2022-7-19T14:05:21Z
2022-07-19T12:06:38Z,42.805,6.029,13.3003,4.60038,2470.624,2022-7-19T14:08:24Z
2022-07-19T12:09:41Z,42.805,6.029,13.3007,4.60038,2470.624,2022-7-19T14:11:28Z
2022-07-19T12:12:44Z,42.805,6.029,13.3007,4.60038,2470.624,2022-7-19T14:14:31Z
2022-07-19T12:15:47Z,42.805,6.029,13.3006,4.60037,2470.624,2022-7-19T14:17:34Z
2022-07-19T12:18:50Z,42.805,6.029,13.3001,4.60039,2470.577,2022-7-19T14:20:37Z
2022-07-19T12:21:53Z,42.805,6.029,13.3004,4.60039,2470.624,2022-7-19T14:23:40Z
2022-07-19T12:24:57Z,42.805,6.029,13.3006,4.60039,2470.637,2022-7-19T14:26:43Z
2022-07-19T12:28:00Z,42.805,6.029,13.3005,4.60039,2470.624,2022-7-19T14:29:46Z
2022-07-19T12:31:03Z,42.805,6.029,13.3007,4.60038,2470.6,2022-7-19T14:32:50Z
2022-07-19T12:34:06Z,42.805,6.029,13.3009,4.60039,2470.614,2022-7-19T14:35:53Z
2022-07-19T12:37:09Z,42.805,6.029,13.3004,4.60037,2470.6,2022-7-19T14:38:56Z
2022-07-19T12:40:12Z,42.805,6.029,13.3003,4.60037,2470.646,2022-7-19T14:41:59Z
2022-07-19T12:43:15Z,42.805,6.029,13.3001,4.60037,2470.614,2022-7-19T14:45:02Z
2022-07-19T12:46:18Z,42.805,6.029,13.3003,4.60037,2470.6,2022-7-19T14:48:05Z
2022-07-19T12:49:22Z,42.805,6.029,13.2999,4.60038,2470.6,2022-7-19T14:51:08Z
2022-07-19T12:52:25Z,42.805,6.029,13.3003,4.60038,2470.6,2022-7-19T14:54:11Z
2022-07-19T12:55:28Z,42.805,6.029,13.3007,4.60038,2470.6,2022-7-19T14:57:14Z
2022-07-19T12:58:31Z,42.805,6.029,13.3003,4.60039,2470.624,2022-7-19T15:00:18Z
2022-07-19T13:01:34Z,42.805,6.029,13.3003,4.60036,2470.6,2022-7-19T15:03:21Z
2022-07-19T13:04:37Z,42.805,6.029,13.3006,4.60037,2470.6,2022-7-19T15:06:24Z
2022-07-19T13:07:40Z,42.805,6.029,13.3004,4.60037,2470.591,2022-7-19T15:09:27Z
2022-07-19T13:10:43Z,42.805,6.029,13.3006,4.60037,2470.624,2022-7-19T15:12:30Z
2022-07-19T13:13:47Z,42.805,6.029,13.3002,4.60036,2470.624,2022-7-19T15:15:33Z
2022-07-19T13:16:50Z,42.805,6.029,13.3005,4.60036,2470.624,2022-7-19T15:18:36Z
2022-07-19T13:19:53Z,42.805,6.029,13.3004,4.60038,2470.6,2022-7-19T15:21:40Z
2022-07-19T13:22:56Z,42.805,6.029,13.3003,4.60037,2470.591,2022-7-19T15:24:43Z
2022-07-19T13:25:59Z,42.805,6.029,13.3004,4.60037,2470.6,2022-7-19T15:27:46Z
2022-07-19T13:29:02Z,42.805,6.029,13.3005,4.60038,2470.6,2022-7-19T15:30:49Z
2022-07-19T13:32:05Z,42.805,6.029,13.3004,4.60039,2470.577,2022-7-19T15:33:52Z
2022-07-19T13:35:08Z,42.805,6.029,13.3003,4.60038,2470.614,2022-7-19T15:36:55Z
2022-07-19T13:38:12Z,42.805,6.029,13.3001,4.60039,2470.577,2022-7-19T15:39:58Z
2022-07-19T13:41:15Z,42.805,6.029,13.3002,4.60036,2470.6,2022-7-19T15:43:01Z
2022-07-19T13:44:18Z,42.805,6.029,13.3006,4.60036,2470.577,2022-7-19T15:46:05Z
2022-07-19T13:47:21Z,42.805,6.029,13.3004,4.60036,2470.624,2022-7-19T15:49:08Z
2022-07-19T13:50:24Z,42.805,6.029,13.3006,4.60036,2470.6,2022-7-19T15:52:11Z
2022-07-19T13:53:27Z,42.805,6.029,13.3005,4.60038,2470.6,2022-7-19T15:55:14Z
2022-07-19T13:56:30Z,42.805,6.029,13.3007,4.60039,2470.553,2022-7-19T15:58:17Z
2022-07-19T13:59:33Z,42.805,6.029,13.3005,4.60037,2470.6,2022-7-19T16:01:20Z
2022-07-19T14:02:37Z,42.805,6.029,13.3006,4.60037,2470.591,2022-7-19T16:04:23Z
2022-07-19T14:05:40Z,42.805,6.029,13.3007,4.60038,2470.577,2022-7-19T16:07:26Z
2022-07-19T14:08:43Z,42.805,6.029,13.3004,4.60039,2470.553,2022-7-19T16:10:30Z
2022-07-19T14:11:46Z,42.805,6.029,13.3003,4.60037,2470.6,2022-7-19T16:13:33Z
2022-07-19T14:14:49Z,42.805,6.029,13.3002,4.60037,2470.577,2022-7-19T16:16:36Z
2022-07-19T14:17:52Z,42.805,6.029,13.3004,4.60041,2470.577,2022-7-19T16:19:39Z
2022-07-19T14:20:55Z,42.805,6.029,13.3005,4.60037,2470.591,2022-7-19T16:22:42Z
2022-07-19T14:23:58Z,42.805,6.029,13.3004,4.60038,2470.6,2022-7-19T16:25:45Z
2022-07-19T14:27:02Z,42.805,6.029,13.3006,4.60038,2470.577,2022-7-19T16:28:48Z
2022-07-19T14:30:05Z,42.805,6.029,13.3002,4.60036,2470.577,2022-7-19T16:31:51Z
2022-07-19T14:33:08Z,42.805,6.029,13.3004,4.60037,2470.553,2022-7-19T16:34:55Z
2022-07-19T14:36:11Z,42.805,6.029,13.3004,4.60037,2470.591,2022-7-19T16:37:58Z
2022-07-19T14:39:14Z,42.805,6.029,13.3004,4.60037,2470.614,2022-7-19T16:41:01Z
2022-07-19T14:42:17Z,42.805,6.029,13.3007,4.60040,2470.577,2022-7-19T16:44:04Z
2022-07-19T14:45:20Z,42.805,6.029,13.3004,4.60039,2470.577,2022-7-19T16:47:07Z
2022-07-19T14:48:23Z,42.805,6.029,13.3004,4.60037,2470.553,2022-7-19T16:50:10Z
2022-07-19T14:51:27Z,42.805,6.029,13.3002,4.60038,2470.591,2022-7-19T16:53:13Z
2022-07-19T14:54:30Z,42.805,6.029,13.3006,4.60038,2470.591,2022-7-19T16:56:16Z
2022-07-19T14:57:33Z,42.805,6.029,13.3007,4.60039,2470.553,2022-7-19T16:59:20Z
2022-07-19T15:00:36Z,42.805,6.029,13.3007,4.60039,2470.614,2022-7-19T17:02:23Z
2022-07-19T15:03:39Z,42.805,6.029,13.3006,4.60039,2470.6,2022-7-19T17:05:26Z
2022-07-19T15:06:42Z,42.805,6.029,13.3006,4.60037,2470.577,2022-7-19T17:08:29Z
2022-07-19T15:09:45Z,42.805,6.029,13.3008,4.60037,2470.591,2022-7-19T17:11:32Z
2022-07-19T15:12:48Z,42.805,6.029,13.3002,4.60039,2470.577,2022-7-19T17:14:35Z